GFSNE_sfc_dewp_000.txt.gz
Dewpoint
34 35 34 34 36 35 33 31 29 28 29 31 32 34 41 49 49 50 51 51 48 48 48 50 52 54 55 56 56 56 56 56 56 56 56 56 55 55
32 33 33 33 33 33 32 33 34 32 30 32 32 32 35 43 48 48 49 49 48 47 46 47 49 51 53 54 54 54 55 55 55 55 55 55 55 55
30 30 30 30 30 31 32 32 32 32 31 32 34 33 33 36 40 46 48 47 49 46 45 45 46 47 49 52 52 53 53 53 53 54 54 54 55 55
27 27 28 26 28 29 30 30 30 30 32 31 32 32 31 31 31 38 46 46 45 46 46 45 45 45 46 46 49 50 51 50 50 51 52 52 54 54
26 26 26 27 27 28 28 28 29 28 30 32 30 32 31 32 30 32 36 43 45 45 43 43 44 44 45 45 46 49 49 48 47 48 48 50 51 51
27 28 28 28 28 28 28 28 28 30 31 32 31 31 31 30 31 31 31 39 39 43 43 43 43 44 44 45 45 46 49 48 48 48 46 45 45 46
26 26 26 27 29 29 27 28 28 28 29 31 32 32 31 30 29 31 32 34 38 38 39 40 40 43 44 44 45 45 47 48 47 47 46 45 43 43
25 25 25 26 26 28 29 29 29 27 27 28 30 33 32 32 31 31 31 33 34 35 36 37 36 38 40 45 45 44 44 47 47 46 45 44 43 42
25 24 24 23 26 26 27 29 29 30 28 27 25 26 29 30 33 33 32 33 35 34 35 33 33 34 34 38 41 43 44 45 46 45 43 42 41 39
26 26 26 26 27 27 26 28 29 30 29 28 28 27 26 27 29 32 33 34 34 34 31 32 30 30 33 34 39 41 43 43 43 43 42 40 38 37
27 27 27 26 27 29 29 30 29 28 30 33 32 31 30 29 28 29 29 32 32 31 32 27 28 28 30 31 33 38 40 41 42 41 40 39 37 35
29 30 31 31 31 30 29 29 28 28 28 27 27 30 32 31 32 31 28 28 31 30 31 25 27 28 25 30 31 32 33 36 39 38 38 37 35 33
28 27 27 28 29 30 32 29 29 28 28 28 27 27 28 32 31 31 30 28 30 33 29 26 25 26 26 26 29 31 31 32 32 33 36 36 35 32
27 28 28 30 30 31 31 30 30 30 31 30 30 28 30 31 30 31 30 30 33 34 30 26 23 25 26 26 24 29 30 31 32 30 31 32 32 32
28 28 30 30 29 29 30 29 28 28 27 28 28 29 29 29 33 32 32 34 34 33 32 29 27 26 26 25 25 27 27 29 30 30 30 27 25 24
29 28 27 28 28 29 29 30 30 30 27 27 29 28 32 31 32 32 31 30 28 29 31 31 29 28 27 26 25 25 26 24 28 29 29 27 27 28
28 28 27 26 25 25 27 31 29 28 28 30 29 29 30 31 32 31 29 28 26 26 27 29 30 29 28 27 25 25 25 25 27 26 25 22 24 26
27 25 23 23 25 25 25 28 29 27 27 27 27 30 31 32 30 29 29 27 26 25 25 25 25 23 24 25 26 23 24 24 25 25 24 22 22 25
24 22 22 23 22 24 24 26 26 31 30 29 27 31 30 28 29 28 28 28 26 25 25 25 24 22 20 17 22 25 22 23 23 23 23 23 22 23
25 24 23 22 24 22 23 24 26 27 27 28 30 31 27 27 27 28 26 25 24 25 24 25 24 25 22 18 18 18 27 23 21 22 22 21 23 24
23 23 25 24 22 24 23 23 25 25 26 27 27 28 28 28 27 27 24 24 24 24 23 23 25 26 20 18 16 13 16 27 24 22 23 19 16 16
22 23 24 25 25 23 22 22 22 23 25 24 24 24 25 26 25 24 23 23 24 21 18 21 23 21 19 16 13 12 13 16 21 22 21 18 18 13
19 21 22 23 24 24 24 22 22 21 22 24 23 23 21 19 21 20 19 18 18 18 19 20 23 23 18 16 14 14 13 14 16 13 11 15 16 16

GFSNE_sfc_dewp_003.txt.gz
Dewpoint
35 35 35 34 36 35 35 34 32 29 28 30 29 31 34 47 48 48 50 50 48 47 48 49 50 52 53 54 57 57 58 57 57 57 57 57 57 57
33 34 34 35 36 36 36 36 36 33 30 31 34 35 36 41 47 48 47 48 47 45 45 46 47 49 50 51 53 55 56 56 56 56 56 56 57 56
31 30 30 31 31 31 32 32 31 31 29 29 31 34 34 35 38 44 46 46 46 46 45 44 44 45 46 47 48 50 54 54 55 55 55 56 56 56
29 29 29 27 28 29 30 29 29 30 29 27 28 30 33 33 33 34 40 47 45 45 45 44 44 44 45 44 45 46 47 52 53 53 53 54 54 55
27 27 27 27 27 28 29 30 31 30 32 31 31 33 33 33 32 33 34 40 44 45 43 42 42 43 44 44 45 45 45 46 50 50 50 50 51 52
27 28 28 27 27 27 26 27 28 29 29 29 29 31 32 33 32 31 31 34 36 42 43 41 41 43 43 44 44 45 45 45 45 49 48 47 48 49
26 26 26 28 29 29 26 25 25 25 26 27 27 27 27 29 30 31 30 31 33 36 36 36 37 38 41 43 44 44 44 44 45 45 47 47 46 47
25 25 25 26 26 28 28 29 27 25 24 24 24 25 25 28 32 32 31 29 29 32 35 34 35 37 38 40 41 41 43 43 43 44 45 47 46 46
24 24 23 23 26 24 26 27 27 29 27 27 25 24 24 25 29 29 32 32 30 32 35 34 30 31 32 35 37 39 40 43 43 43 43 45 46 45
25 25 25 25 25 25 25 25 24 25 27 27 27 27 27 26 26 26 28 33 32 33 34 32 23 24 27 33 34 37 39 42 42 42 43 44 45 44
26 27 27 27 28 29 27 28 27 27 28 31 31 31 31 31 29 27 26 26 26 30 32 31 28 27 24 23 31 34 36 40 41 42 42 43 43 43
26 27 28 27 29 31 30 29 27 27 27 28 27 29 31 31 32 30 29 26 24 26 28 31 27 27 23 21 26 31 32 36 40 41 42 42 42 43
25 26 26 28 28 29 30 30 28 29 28 27 27 27 28 27 29 31 31 32 29 25 31 30 26 25 24 21 25 30 31 32 34 36 40 40 40 39
26 27 26 28 28 29 30 31 31 30 30 29 29 28 28 28 28 30 30 31 30 28 30 31 28 26 23 23 23 27 29 31 32 31 31 33 33 35
28 29 30 31 31 29 30 30 29 29 27 26 25 27 28 28 29 31 32 33 32 30 29 29 27 26 27 21 23 22 27 28 30 28 27 28 28 29
28 27 27 27 27 27 26 28 28 29 28 26 25 26 28 29 29 30 31 32 31 28 31 31 30 29 27 26 26 25 26 24 28 27 26 25 26 27
26 24 22 22 22 24 24 25 28 25 28 27 26 27 28 29 31 32 30 29 26 25 26 28 29 28 27 27 24 26 25 26 28 26 25 24 25 25
25 21 20 20 20 21 22 23 25 27 26 27 27 28 29 30 29 29 29 28 25 25 24 24 24 24 24 23 26 23 25 25 25 25 25 22 22 25
23 21 18 20 19 21 21 22 23 25 28 27 27 30 29 27 28 27 27 26 23 23 23 23 23 19 18 13 22 27 23 23 23 22 24 23 22 23
23 22 22 20 20 20 21 20 22 23 25 25 28 26 27 27 27 25 25 18 22 22 22 23 23 22 20 17 16 17 26 22 23 21 20 21 24 26
19 21 21 22 22 20 20 20 20 22 20 21 22 23 23 18 19 20 20 16 16 19 20 20 20 20 19 20 15 13 15 27 25 23 21 20 19 19
17 18 19 20 20 21 21 20 19 20 20 20 20 19 19 21 21 20 18 19 18 14 16 19 21 20 16 17 11 9 14 17 23 24 24 22 19 16
15 16 16 17 17 18 21 20 19 18 19 19 19 19 19 19 20 18 17 17 18 18 19 20 20 19 16 14 12 11 9 12 13 12 15 21 21 22

GFSNE_sfc_dewp_006.txt.gz
Dewpoint
33 33 33 34 36 35 35 32 30 28 28 30 30 33 35 38 42 45 46 48 48 47 46 48 49 50 51 51 52 53 55 58 57 57 57 57 57 57
32 33 33 33 34 35 35 34 33 31 27 27 27 33 35 35 39 41 43 47 46 45 44 43 46 48 48 48 49 50 50 53 56 56 56 56 57 57
31 31 30 31 31 32 33 32 32 32 29 29 30 32 33 34 36 38 41 42 44 44 42 43 44 44 44 44 45 46 48 50 50 54 56 56 56 56
28 28 27 26 27 29 30 30 30 30 29 27 28 29 29 32 34 35 36 39 42 43 44 44 43 43 41 42 42 43 45 46 47 48 53 55 55 55
26 27 27 28 28 28 28 28 29 28 29 29 29 32 33 33 33 34 34 36 38 43 43 42 42 42 42 42 43 43 43 43 43 45 45 50 53 53
26 27 27 27 26 26 25 25 25 26 27 27 26 27 30 32 32 31 31 33 33 34 40 41 41 43 42 42 41 42 42 42 43 44 43 43 47 51
26 26 25 27 28 29 26 25 25 23 23 21 21 22 23 24 25 29 30 31 32 33 35 36 38 37 38 40 41 42 42 43 43 43 43 43 43 47
24 23 23 25 25 27 28 28 27 24 23 23 23 22 22 23 25 26 29 29 29 32 34 34 36 36 38 36 39 38 38 40 41 43 43 43 43 43
24 24 23 23 25 24 26 28 28 28 27 25 24 23 23 25 25 25 28 29 29 33 34 33 32 33 31 35 36 37 38 38 39 40 42 42 41 42
25 25 25 25 25 25 25 25 25 25 25 24 25 25 26 27 27 26 25 26 28 33 34 30 30 24 23 27 34 35 36 37 37 38 40 41 41 41
27 27 27 26 27 28 28 28 26 27 28 29 30 29 29 30 30 27 27 26 25 24 31 31 29 29 22 23 24 32 34 35 36 36 39 41 41 40
24 25 26 26 27 28 26 27 26 26 25 26 26 28 30 30 30 30 30 27 25 19 27 29 23 24 26 18 20 21 25 32 34 36 38 40 41 42
24 24 25 27 28 29 29 28 27 27 27 28 27 27 27 27 28 29 31 30 28 27 27 29 23 21 21 20 18 20 22 26 32 34 37 40 41 42
25 26 27 29 29 30 30 29 29 29 29 28 27 26 26 27 27 28 28 30 31 28 28 29 25 24 20 16 19 18 18 22 30 30 32 35 38 40
28 27 27 25 25 27 27 28 27 27 27 26 25 25 27 27 28 28 27 29 28 30 30 29 29 26 27 24 20 15 18 19 25 27 27 29 30 32
25 24 23 23 22 22 24 25 26 27 27 27 26 25 27 28 29 28 25 29 28 28 32 31 30 29 27 22 25 18 22 22 19 26 26 26 27 28
25 21 20 20 20 21 21 23 25 26 26 26 27 26 26 26 27 27 28 29 29 25 27 30 31 31 29 26 22 26 21 24 22 25 26 24 24 26
24 19 18 18 19 20 19 20 22 23 25 22 19 21 22 25 26 27 28 29 27 26 24 24 25 25 25 24 27 23 23 24 20 25 25 23 22 25
22 20 19 19 18 19 19 19 20 22 24 24 28 26 28 26 29 28 28 27 25 25 24 25 25 24 19 16 20 26 23 23 22 23 24 24 22 23
19 19 19 19 20 19 18 18 18 20 20 21 22 23 24 22 22 24 23 23 22 20 22 23 24 23 20 15 12 14 26 23 23 21 21 23 25 27
16 17 17 17 18 19 18 17 16 17 18 18 19 19 19 17 19 19 19 19 17 20 20 20 20 21 20 18 13 12 18 27 26 22 22 21 19 20
14 15 15 16 16 16 17 18 16 16 16 16 17 17 18 18 18 20 17 15 16 14 17 20 22 21 17 16 9 4 13 18 24 25 25 23 20 16
12 12 13 13 14 14 15 16 18 15 16 16 15 15 16 16 16 15 14 15 17 18 19 18 19 18 17 14 12 10 11 14 15 14 12 21 26 25

GFSNE_sfc_dewp_009.txt.gz
Dewpoint
35 34 33 33 34 34 34 34 31 27 25 27 30 33 34 37 39 41 41 43 43 45 46 46 49 49 50 50 51 52 51 52 55 58 58 58 57 57
32 32 32 33 33 34 34 33 33 31 27 28 28 29 32 33 37 39 40 41 43 43 43 44 45 47 48 48 48 49 49 50 49 51 57 57 58 57
30 30 29 30 30 30 32 32 31 31 28 27 29 30 30 30 32 36 39 39 41 41 42 42 43 44 45 44 44 45 46 47 49 50 51 54 58 57
27 28 27 25 27 29 30 29 29 29 29 27 28 29 30 32 34 34 35 37 39 39 41 41 42 43 42 42 42 42 43 44 45 47 48 50 51 57
27 27 27 28 27 28 28 28 28 26 28 26 25 30 31 32 32 33 34 34 34 36 36 38 41 42 42 41 41 42 41 42 42 42 43 45 47 50
26 26 25 25 25 25 25 25 25 25 26 25 24 24 28 28 30 30 30 32 32 31 35 36 38 41 41 41 41 41 42 41 41 41 41 41 42 44
25 25 24 25 26 26 25 25 26 25 24 22 21 21 21 23 25 25 26 28 31 32 33 35 36 37 39 40 41 42 41 40 41 41 42 42 41 42
23 23 23 25 25 26 26 27 27 24 23 23 22 22 21 22 23 23 24 24 24 30 32 31 34 35 36 36 38 39 39 39 39 40 40 41 41 41
24 24 24 23 25 24 25 26 27 28 27 26 24 23 22 23 24 26 25 25 25 28 32 28 28 29 33 35 37 37 37 38 38 37 37 37 39 39
25 25 25 25 25 25 24 25 25 25 25 25 25 25 25 25 25 25 25 25 26 27 31 28 26 26 25 29 33 35 36 36 36 36 36 37 37 38
25 25 25 25 26 27 26 26 26 25 27 28 28 28 28 29 28 27 27 26 23 24 26 28 25 22 20 27 28 32 34 34 35 35 36 36 36 37
23 23 25 25 26 27 27 27 25 24 24 25 26 27 30 29 30 29 30 26 25 22 24 25 23 23 27 18 18 21 25 31 33 34 35 35 36 38
24 24 26 27 28 29 29 28 28 26 26 26 26 28 27 27 27 28 30 30 28 26 26 26 23 23 23 24 16 17 23 20 25 28 33 34 36 38
25 27 27 26 26 25 25 27 27 29 28 27 27 27 27 28 27 27 28 29 29 28 29 29 25 24 21 24 26 15 14 16 18 19 23 30 33 36
28 25 24 24 24 23 24 26 25 25 25 25 25 26 26 26 26 27 28 28 30 31 31 31 28 25 25 25 20 14 17 15 15 15 18 25 27 30
25 25 22 22 21 22 23 24 25 25 25 25 26 27 28 28 28 29 28 27 28 28 31 32 30 30 28 26 26 24 14 19 18 14 15 16 22 27
24 21 20 18 18 19 19 20 21 22 23 24 25 25 26 26 26 26 28 27 26 24 25 30 32 32 31 30 25 23 22 18 17 16 15 14 17 20
23 20 18 17 16 18 17 17 18 19 20 22 23 23 22 24 23 24 28 27 26 25 25 25 26 26 25 25 28 21 23 23 19 15 16 15 16 22
18 18 17 15 16 18 17 16 16 19 20 21 22 24 25 25 25 26 27 27 26 25 23 25 25 25 21 19 21 26 22 21 16 17 16 15 17 23
17 16 15 15 16 16 17 16 15 15 16 17 18 19 20 22 22 23 24 23 20 20 20 23 24 24 23 20 18 18 25 15 12 12 16 22 24 26
14 14 14 14 14 14 14 15 13 13 12 13 14 15 15 21 21 18 19 18 21 21 20 19 19 22 20 20 15 14 18 26 21 15 17 18 17 19
12 12 12 13 13 13 12 12 15 15 14 14 13 13 13 12 16 18 17 14 16 12 16 18 22 22 20 18 12 8 10 15 21 22 24 23 20 16
10 10 10 10 11 12 11 11 11 13 14 12 11 12 9 8 13 12 10 11 12 11 12 15 17 16 16 14 13 11 11 12 14 15 14 20 26 25

GFSNE_sfc_dewp_015.txt.gz
Dewpoint
38 38 37 36 38 36 35 33 28 23 22 23 24 27 29 29 33 34 36 38 38 40 41 42 42 44 45 47 46 45 45 47 49 48 48 50 53 59
36 36 35 35 34 34 33 32 29 25 20 19 20 25 28 24 29 34 32 38 36 40 41 40 41 41 41 42 45 47 44 45 47 48 48 47 50 54
33 32 30 30 28 28 28 27 25 24 22 22 23 26 28 28 27 29 31 32 33 40 39 38 39 39 40 41 41 43 45 45 45 45 47 47 47 49
27 27 26 23 27 28 27 27 27 27 25 23 23 25 27 28 29 30 28 27 31 32 38 38 38 37 37 39 40 41 41 42 43 43 44 45 46 46
26 27 26 26 25 24 24 23 23 21 23 22 22 23 24 26 26 27 27 29 27 31 34 37 37 37 37 37 40 41 41 41 41 41 42 42 43 44
27 26 25 24 23 22 21 21 21 21 22 21 21 21 22 23 24 25 26 28 28 24 27 30 32 33 37 36 38 41 41 41 41 41 40 40 40 41
25 23 24 24 25 25 22 23 23 22 22 21 21 21 21 23 23 24 24 26 27 29 29 30 31 31 31 33 34 38 41 41 41 41 40 40 40 40
22 21 21 23 23 25 26 27 26 23 22 22 21 20 20 20 21 22 23 23 22 28 28 28 30 30 30 32 32 37 39 40 40 41 40 39 39 38
21 20 19 19 24 23 24 25 26 26 26 25 24 23 22 23 23 24 25 24 23 25 27 27 30 31 33 32 36 37 38 38 39 39 39 38 37 37
22 22 22 23 24 23 23 24 24 25 25 23 24 23 23 23 23 25 26 26 26 25 28 26 30 31 32 34 34 33 35 37 38 38 37 37 37 36
23 23 23 23 25 27 26 27 26 24 24 28 29 29 29 29 28 27 28 27 26 22 24 27 28 30 31 35 37 32 34 35 36 37 37 37 36 36
24 24 25 25 27 29 29 27 25 22 21 25 25 26 29 30 32 32 29 26 24 22 23 24 23 23 26 33 34 36 36 33 33 36 36 36 36 37
24 23 26 29 27 26 24 25 25 25 25 24 24 24 26 28 28 27 29 31 28 25 21 24 22 23 25 26 31 33 35 36 36 36 34 34 34 34
25 27 29 26 24 22 23 24 25 25 26 26 25 25 26 27 27 28 28 28 30 28 26 29 26 24 25 25 24 31 34 35 36 36 36 34 31 32
28 27 25 24 22 20 21 22 23 24 25 25 25 25 28 28 30 32 32 31 32 33 31 31 31 29 27 27 25 27 30 34 35 36 35 34 34 35
26 26 24 23 20 20 21 22 23 24 23 23 25 26 28 29 28 28 29 30 29 29 32 33 33 32 31 28 26 27 30 29 33 33 34 35 33 32
25 24 21 20 18 19 20 20 21 21 22 23 25 25 26 27 27 28 28 29 28 26 28 31 33 33 33 33 30 27 28 28 31 32 31 31 33 34
21 19 18 19 18 17 18 18 20 19 20 21 23 24 25 26 26 27 27 26 27 27 27 28 31 30 31 30 29 28 28 28 29 32 31 30 30 32
18 17 17 17 18 16 17 17 18 19 20 20 21 22 23 26 27 27 27 27 28 28 29 31 30 28 24 23 27 26 28 28 30 29 29 28 29 30
15 15 15 16 16 15 15 16 17 19 19 19 20 21 22 23 25 25 26 27 27 26 26 27 27 27 26 27 27 26 25 28 29 29 27 28 27 25
13 13 14 14 14 15 16 17 18 18 19 19 20 20 21 21 22 23 25 23 25 24 22 22 23 24 26 27 25 24 25 26 28 29 27 27 25 24
12 12 13 13 14 14 16 16 17 18 18 18 19 20 21 21 21 22 23 24 23 23 21 22 23 23 25 23 22 21 22 24 25 25 25 25 26 23
10 10 12 12 13 14 14 15 15 16 16 17 18 19 20 20 20 21 22 21 21 21 21 22 21 20 20 20 20 21 20 21 22 22 23 23 24 24

GFSNE_sfc_dewp_018.txt.gz
Dewpoint
38 37 36 36 36 34 33 32 28 23 19 21 23 28 28 30 32 32 34 38 41 38 39 40 41 41 43 45 48 47 46 46 47 48 48 48 48 51
35 35 34 32 33 34 31 31 29 26 22 21 20 22 23 20 28 30 30 37 38 39 39 40 40 41 41 41 41 42 44 47 45 45 46 46 48 48
32 31 30 29 26 24 24 24 23 23 21 21 20 23 25 27 27 29 29 29 30 37 37 39 39 39 39 39 41 40 41 43 46 45 44 44 45 47
27 28 27 19 25 26 24 25 24 24 22 22 22 22 24 26 28 29 25 23 26 31 39 39 38 38 38 38 38 39 40 41 41 43 44 43 44 45
26 25 25 25 25 24 24 23 22 18 21 21 20 21 22 24 24 26 26 28 23 31 34 35 36 36 37 37 37 36 38 39 40 40 41 42 42 42
26 26 25 25 25 24 21 22 20 20 21 20 20 20 21 22 23 22 23 25 25 21 26 28 30 32 35 36 36 36 36 38 39 39 39 40 40 41
24 22 24 25 26 26 22 22 22 21 20 19 19 20 21 21 21 23 23 25 26 28 27 28 28 29 29 32 31 35 35 35 38 39 40 39 40 40
21 21 21 25 23 27 27 27 26 24 22 22 23 22 22 21 22 23 25 24 23 29 28 29 30 28 28 29 31 34 35 35 37 39 39 39 40 39
22 21 18 16 24 22 25 27 26 26 26 25 23 23 22 24 24 25 26 25 23 24 28 30 31 32 33 28 33 35 37 37 38 38 38 39 39 38
22 21 21 22 23 24 23 24 24 25 27 27 26 24 24 24 25 25 26 26 28 27 28 29 33 32 33 34 33 34 37 36 37 37 37 37 37 37
22 23 23 24 25 27 28 28 25 25 24 28 29 28 28 30 29 27 30 28 28 23 27 27 30 32 32 34 36 33 35 34 34 36 37 37 36 36
25 24 26 26 27 28 30 28 26 22 23 24 23 25 31 29 29 30 30 29 26 25 24 25 25 26 28 33 34 36 37 34 33 34 36 36 37 39
23 24 25 29 28 26 25 26 25 26 24 26 26 24 25 27 27 30 31 31 29 25 23 24 28 24 27 28 31 34 36 37 37 36 34 36 36 36
25 26 30 26 26 24 22 24 23 25 28 29 29 28 28 28 28 28 30 31 30 28 26 30 29 24 25 27 26 30 35 35 35 35 38 37 35 34
27 27 26 25 25 24 23 23 23 28 27 27 27 27 29 29 29 31 32 32 31 32 32 33 33 28 29 28 27 30 31 34 36 37 37 37 36 37
25 28 26 25 26 26 24 24 25 25 25 25 25 26 28 30 31 29 29 31 30 29 34 34 34 31 29 30 27 29 31 31 36 35 36 37 37 36
25 26 24 23 23 22 21 22 23 23 23 25 26 27 27 27 29 30 28 29 30 28 30 31 34 33 33 31 31 29 30 31 32 34 34 32 34 36
23 21 21 21 21 21 20 21 21 21 21 23 25 25 25 26 27 30 28 27 28 29 27 30 31 31 31 32 33 27 28 31 30 34 32 30 30 35
19 19 20 20 20 20 19 19 20 21 22 21 23 23 24 25 28 29 31 30 29 28 28 32 30 30 27 26 29 27 29 29 34 32 33 30 30 31
17 18 18 19 19 17 17 18 19 21 21 21 22 23 24 24 25 26 28 29 29 28 28 28 30 30 29 29 31 27 25 29 30 31 31 31 29 24
15 15 17 17 16 16 18 19 21 21 21 22 22 22 23 24 23 23 25 27 27 25 23 23 24 25 27 30 28 26 26 26 28 31 32 29 27 28
14 13 14 15 16 17 18 19 19 19 20 20 22 23 23 24 23 22 23 24 24 25 22 23 23 23 25 23 26 24 25 27 26 25 25 26 27 27
13 12 14 15 15 16 15 17 17 19 18 19 20 21 24 23 23 22 23 23 22 23 23 23 21 22 21 22 24 24 22 23 25 27 26 25 24 24

GFSNE_sfc_dewp_021.txt.gz
Dewpoint
37 37 35 33 34 32 31 30 31 28 25 25 26 30 35 39 38 36 37 39 41 42 40 39 39 39 40 41 43 48 48 47 47 48 48 49 49 49
40 39 39 38 38 37 34 34 31 28 26 26 26 28 29 21 29 30 33 38 41 41 39 38 38 40 42 43 42 42 45 46 46 46 46 46 46 46
35 35 35 33 30 28 27 25 25 27 26 25 24 26 29 30 27 31 32 32 33 39 38 39 38 39 40 41 41 41 41 40 41 44 46 46 45 45
31 31 30 24 27 26 24 24 24 24 23 25 23 25 27 29 30 32 25 22 29 30 39 37 38 39 39 38 38 39 39 39 40 40 41 44 44 44
25 25 25 25 25 25 24 24 23 18 23 23 22 23 25 26 27 28 29 31 25 32 38 38 39 39 38 37 37 37 37 37 37 38 39 40 41 42
24 25 24 24 25 24 23 23 21 22 22 22 23 23 23 24 25 25 26 28 27 20 26 27 32 34 35 35 35 35 36 36 36 36 37 38 38 40
23 21 23 26 28 26 20 21 21 22 22 22 22 22 22 21 22 24 25 27 28 29 30 30 31 31 32 34 32 35 36 37 37 36 37 37 38 39
21 22 22 26 25 29 29 28 26 21 21 22 23 23 22 24 25 26 27 27 27 30 28 30 31 30 30 31 35 35 36 34 35 35 35 37 38 38
23 22 20 17 24 20 25 28 28 29 27 24 23 23 23 24 25 26 27 26 27 27 28 29 34 34 34 28 34 34 34 36 37 37 37 38 38 38
22 22 21 21 23 25 24 25 25 25 26 27 28 26 26 25 25 25 26 27 29 28 30 29 33 33 35 35 33 34 34 34 36 37 38 37 36 36
21 23 24 24 26 27 27 28 25 25 26 28 30 30 30 30 30 28 28 29 29 25 27 28 31 32 33 34 36 33 33 34 34 36 35 36 36 36
24 22 25 25 27 28 29 29 27 23 23 26 26 25 28 29 30 31 29 26 26 26 26 26 26 28 29 34 34 36 37 34 34 35 34 34 35 36
24 25 26 29 27 26 26 26 26 27 25 24 25 26 27 27 27 28 31 30 29 27 26 26 30 28 28 29 32 35 36 38 38 37 34 34 35 36
25 26 29 26 25 25 25 26 25 24 26 28 29 28 30 29 28 29 30 32 33 32 31 32 32 28 27 29 26 32 34 36 37 35 37 37 34 36
27 26 26 27 26 26 28 25 25 27 29 27 27 28 29 29 29 30 31 31 34 35 34 34 33 33 31 28 28 30 32 35 37 35 37 36 35 35
24 25 28 27 27 28 28 27 27 28 26 27 27 28 30 31 31 32 32 30 32 30 34 35 33 31 30 29 28 29 31 31 35 36 36 35 36 38
23 27 24 23 23 24 25 25 25 24 25 25 26 27 27 27 29 31 29 28 28 28 29 32 34 34 32 30 29 30 30 32 33 34 35 33 35 36
23 22 22 22 22 22 22 23 23 22 22 24 25 26 25 26 27 31 30 29 27 26 29 30 31 31 30 31 32 29 30 32 32 33 35 32 31 35
20 20 20 20 21 21 19 20 20 23 23 23 23 24 25 25 28 28 30 30 32 31 32 34 34 30 27 25 29 28 29 30 33 32 34 34 30 31
18 19 19 19 17 16 16 17 20 21 22 23 23 24 25 25 26 25 26 27 27 28 29 28 30 28 27 27 29 26 26 27 29 30 32 35 31 26
16 16 18 16 16 16 19 20 21 21 22 22 23 23 25 25 25 25 25 25 25 25 24 24 24 26 27 30 29 27 27 25 27 28 30 32 28 28
14 12 13 15 16 16 18 20 20 21 20 20 22 24 25 25 24 24 25 25 24 25 24 24 24 23 25 24 26 24 26 27 26 26 26 26 26 25
14 14 15 15 15 15 14 17 17 19 18 18 20 21 24 23 24 24 24 24 22 23 23 23 23 22 22 21 23 24 22 24 24 28 25 26 26 27

GFSNE_sfc_dewp_024.txt.gz
Dewpoint
41 40 39 39 38 37 34 32 32 28 26 28 30 29 34 43 44 43 42 42 41 41 42 43 41 41 41 40 40 40 42 49 49 49 49 49 50 50
39 39 39 39 40 40 38 36 34 30 27 28 28 29 31 27 30 34 35 41 42 41 41 41 39 40 40 40 42 42 41 43 47 47 47 47 47 48
35 34 34 34 33 34 33 31 32 34 30 30 31 29 28 30 29 30 33 32 34 40 40 39 38 38 39 39 41 41 41 41 40 40 41 45 46 46
31 30 29 26 28 28 28 27 27 27 25 23 24 25 25 27 28 28 26 25 27 34 39 39 38 38 38 38 39 39 38 39 39 39 38 38 39 44
25 25 26 26 26 27 27 26 26 23 25 24 23 24 25 25 24 26 27 28 27 34 35 39 39 39 38 39 39 38 38 37 37 37 37 37 38 38
25 25 24 25 25 25 25 25 23 23 22 22 22 22 23 24 24 23 24 28 27 23 27 30 36 38 38 38 38 38 37 37 37 36 35 35 36 37
23 23 23 27 30 28 21 22 22 22 23 22 21 22 23 25 25 26 25 27 28 30 29 28 28 30 33 37 36 37 37 37 36 37 36 36 36 36
22 22 24 27 25 29 30 31 26 23 21 21 20 20 21 22 24 25 25 25 25 30 29 28 30 29 31 31 35 34 34 34 36 37 37 36 36 36
23 22 22 21 25 23 26 27 30 29 27 25 24 23 22 22 23 23 24 25 26 28 28 27 27 29 31 31 34 35 34 34 34 35 36 36 36 36
23 21 21 23 24 25 24 25 26 26 26 26 30 28 28 27 28 30 30 29 28 26 28 26 26 29 28 31 35 35 35 34 35 35 36 36 36 36
22 22 23 22 25 26 26 26 26 26 27 29 30 30 30 30 31 28 27 25 23 23 28 28 28 27 29 30 31 35 35 34 34 34 34 36 36 35
23 23 25 25 29 28 27 27 26 25 24 25 26 25 26 26 28 29 29 25 24 22 24 25 25 27 25 29 30 31 29 34 34 34 34 35 35 33
22 22 24 27 29 28 26 25 25 26 26 24 24 24 25 26 28 29 28 28 27 25 25 26 28 26 26 26 26 29 32 32 32 32 35 35 35 34
23 24 27 24 28 26 26 27 28 26 25 25 25 27 28 30 32 32 32 32 33 32 31 33 31 29 25 25 27 28 30 31 29 29 29 33 35 35
24 25 25 27 27 26 27 29 28 26 27 26 26 27 28 28 29 29 29 32 32 32 32 33 32 31 30 27 26 25 25 30 34 34 27 28 29 31
22 22 25 25 25 26 27 27 27 27 26 26 25 27 30 30 27 29 29 29 25 28 30 33 32 31 29 28 26 23 26 25 31 34 28 33 34 34
21 24 23 21 22 22 23 24 26 24 24 24 25 25 26 25 26 27 30 25 22 23 26 29 31 29 29 29 26 26 26 27 28 30 33 30 31 33
22 21 20 19 20 21 21 21 21 22 22 23 24 23 24 24 25 26 29 30 23 24 27 30 31 29 28 27 31 27 25 26 29 32 33 31 27 28
19 19 18 19 19 17 17 18 19 23 22 21 24 23 24 24 26 25 26 26 25 27 29 29 30 30 26 23 26 29 28 29 29 26 28 31 31 28
18 18 17 18 16 16 17 18 19 21 20 20 21 22 23 24 25 23 24 25 25 27 24 23 21 23 24 22 24 22 27 26 27 26 26 31 28 29
15 16 17 16 16 16 17 17 18 19 19 18 19 21 23 24 23 22 24 23 24 25 23 21 22 22 25 25 27 23 23 25 25 24 25 26 27 27
13 14 15 16 16 15 16 16 16 16 16 16 16 18 21 23 22 23 23 23 23 23 25 24 26 26 25 25 25 14 19 18 24 26 26 26 23 22
10 14 15 15 15 15 14 14 14 13 13 14 14 16 19 19 21 23 20 23 23 17 18 21 24 25 23 22 21 21 15 18 21 24 20 26 27 28

GFSNE_sfc_dewp_030.txt.gz
Dewpoint
36 36 37 38 39 38 37 37 33 30 31 30 28 30 32 33 36 40 40 41 41 41 42 43 44 43 44 42 40 38 35 34 34 37 44 50 50 49
36 35 33 34 34 34 35 35 35 34 30 30 29 31 32 30 32 33 38 41 40 39 38 40 43 43 43 43 42 41 38 36 34 34 37 43 47 47
28 27 26 27 27 27 29 28 29 31 27 27 30 29 25 25 26 29 28 28 36 39 39 39 39 41 42 41 41 41 41 40 38 36 36 38 39 41
25 25 25 22 23 24 26 25 25 26 26 24 24 24 23 23 24 25 24 22 25 30 39 39 38 38 38 40 40 40 40 40 40 40 39 37 36 35
25 25 24 24 23 23 24 25 26 25 26 24 22 24 24 24 25 26 26 26 27 32 33 35 39 40 40 40 40 40 40 38 39 39 38 38 38 35
25 25 24 24 23 24 25 26 25 24 23 22 21 22 23 24 24 24 23 25 26 26 29 31 32 33 35 38 39 39 39 39 38 38 37 36 36 36
25 24 23 23 23 23 24 25 26 24 25 24 22 22 21 20 20 21 22 23 25 26 26 28 29 29 30 32 34 38 38 39 38 38 38 37 36 36
23 22 22 23 21 23 24 26 25 24 23 25 24 24 22 21 21 22 22 22 21 26 27 25 28 27 29 30 33 35 36 37 38 38 38 37 37 37
24 23 22 21 23 22 24 25 25 26 26 26 25 25 24 23 23 22 22 22 22 24 25 24 23 25 27 27 32 34 35 35 35 35 35 35 35 35
25 24 23 22 22 22 23 27 26 26 26 26 26 26 26 26 26 26 26 25 26 27 27 25 24 23 25 27 31 33 35 35 36 36 35 34 34 34
23 22 21 20 22 25 27 24 26 24 24 25 26 29 30 31 30 29 27 26 23 22 25 25 24 23 23 25 27 31 34 35 35 36 36 35 35 34
22 20 21 21 25 25 25 24 23 22 23 23 24 25 25 25 25 25 24 22 22 22 23 23 23 21 18 22 26 27 27 32 34 35 35 36 36 34
19 20 21 23 27 26 26 26 26 25 26 26 26 24 25 27 28 29 29 28 25 25 25 25 22 22 23 21 21 23 24 24 26 28 34 35 36 35
20 22 24 25 24 26 26 27 26 26 26 25 25 25 26 27 29 31 32 32 31 29 28 29 27 25 23 23 24 25 23 24 22 24 26 30 34 35
22 25 22 22 23 24 25 25 25 24 23 22 23 24 26 27 28 28 29 29 30 32 32 32 31 29 30 27 25 24 25 24 30 28 25 27 27 24
21 22 21 21 21 23 22 23 23 24 23 22 22 24 25 25 26 27 26 29 28 25 27 31 31 31 28 29 29 27 25 26 26 30 30 28 22 25
14 17 17 17 17 18 18 20 21 22 21 22 22 22 23 24 25 25 26 26 23 25 25 29 29 31 30 29 26 26 26 25 24 25 29 29 26 30
13 11 14 15 15 15 15 16 17 18 19 19 20 20 20 22 23 24 22 19 24 25 22 21 28 29 29 28 31 27 27 26 24 30 31 29 28 29
8 8 10 14 14 15 14 15 15 16 17 16 16 17 18 20 21 21 22 23 23 24 20 18 18 16 20 16 20 27 24 24 23 19 20 25 23 24
9 6 11 13 13 14 13 13 13 13 12 13 14 14 15 18 18 20 20 18 21 22 22 19 17 19 20 17 18 14 25 14 19 15 17 17 23 28
7 8 4 13 13 13 10 8 5 8 8 7 9 11 12 16 16 17 17 16 14 18 17 17 18 21 22 19 14 13 12 24 21 21 18 22 19 23
1 5 6 7 6 9 8 7 6 3 6 7 7 7 8 12 14 14 15 12 15 11 14 18 22 24 21 23 17 13 12 11 20 25 26 24 18 17
-2 2 -0 -2 2 5 11 7 7 2 5 6 6 7 7 8 12 11 10 11 12 11 14 16 18 20 23 21 20 17 9 10 16 15 13 24 27 27

GFSNE_sfc_dewp_033.txt.gz
Dewpoint
34 34 34 34 34 34 34 33 33 28 27 29 29 31 32 33 34 33 37 40 41 41 40 41 43 43 44 43 41 38 36 36 36 37 43 49 50 49
34 31 28 29 28 28 29 30 31 31 27 33 30 30 31 24 27 28 28 31 39 40 39 40 40 41 42 43 42 42 39 36 35 34 35 39 45 47
25 24 24 25 25 25 26 26 26 26 24 25 28 29 24 23 24 26 27 25 26 32 37 39 40 40 40 41 42 42 42 41 40 37 36 36 38 42
24 24 24 23 23 24 24 24 24 25 25 23 25 24 23 23 23 24 25 25 27 30 35 35 37 40 40 39 40 40 40 41 41 40 41 38 36 36
24 24 24 24 23 23 23 24 25 26 26 25 24 24 24 24 24 24 24 25 25 27 30 31 33 35 39 39 39 38 39 39 39 39 39 39 39 37
25 25 24 23 23 23 22 24 25 26 25 24 23 23 23 23 24 22 21 24 23 24 26 28 31 33 34 35 39 40 40 39 39 38 38 37 36 36
25 24 24 24 25 24 20 21 21 23 23 23 23 23 22 21 20 21 21 22 23 25 24 24 28 28 29 31 33 35 37 39 39 39 38 37 36 36
24 24 24 25 24 24 23 24 23 23 23 23 22 22 22 21 22 21 21 21 21 24 25 24 26 25 26 28 31 33 34 36 37 38 38 37 37 36
25 24 23 20 22 21 23 24 24 26 26 26 24 22 24 24 23 22 22 22 22 23 23 23 22 24 27 27 32 32 33 34 34 35 36 37 36 36
22 22 22 21 21 21 23 25 25 23 26 25 26 26 26 26 25 25 24 25 25 25 25 24 23 22 25 26 30 31 33 35 35 35 35 35 35 34
21 21 20 20 23 26 26 24 23 23 25 26 25 25 26 28 30 29 26 26 23 21 24 23 23 21 21 24 26 30 32 34 34 35 35 36 35 34
20 19 21 21 26 27 25 25 23 22 24 23 23 24 25 25 25 24 23 22 21 18 22 23 23 22 17 20 24 25 27 31 33 34 35 36 36 33
19 20 21 24 23 25 26 25 25 26 25 26 26 26 26 26 26 26 26 24 23 22 25 25 23 23 24 20 20 22 24 23 24 27 33 35 35 35
21 21 24 21 23 24 24 26 25 25 24 23 23 24 25 26 28 30 30 30 30 28 28 29 25 24 24 20 20 22 22 20 21 21 23 29 33 35
21 20 20 20 21 22 22 24 23 23 22 21 21 23 24 26 27 28 29 30 30 30 32 32 30 28 28 26 25 23 24 25 27 27 29 28 25 26
17 17 17 20 18 19 19 21 21 22 21 20 21 22 24 25 25 27 26 27 28 23 26 30 30 30 29 30 29 26 26 26 25 28 30 29 28 28
10 9 12 14 15 15 15 16 17 17 17 18 19 19 20 22 24 26 26 25 23 25 26 27 30 30 31 30 27 27 25 24 22 22 27 24 24 24
11 5 1 3 10 14 13 14 15 14 14 16 16 17 17 18 21 23 24 21 23 24 22 21 21 29 29 28 30 26 28 27 27 25 27 28 24 26
5 2 -3 1 2 13 12 12 12 11 13 12 13 13 15 17 19 21 21 21 21 20 20 17 16 15 20 19 21 26 24 26 24 26 24 26 24 20
7 2 0 2 5 12 12 10 10 8 7 8 10 10 11 14 16 17 18 16 16 19 18 17 16 17 18 15 19 13 24 15 21 21 16 17 19 26
6 6 -0 4 4 6 2 1 1 4 4 3 5 6 6 10 13 14 14 12 12 16 15 14 15 19 20 15 10 10 14 24 21 21 21 21 21 22
0 5 5 3 -1 -1 -5 -5 -0 -0 4 4 4 4 4 6 10 10 12 11 11 10 13 16 19 21 18 20 13 10 17 9 19 25 25 23 16 15
-1 2 -1 -4 -3 -4 2 -4 -3 -6 2 4 4 5 3 4 9 8 8 9 10 10 11 13 16 18 20 19 15 17 11 10 17 17 12 23 26 26